When you browse on this site, cookies collect data to enhance your experience and personalize the content and advertising you see.
Visit our Privacy Policy to learn more. By continuing to use the site, you agree to this use of cookies and data.
  • In France
  • List of Countries
  • For 7 days
  • Water Temperature
  • Satellite Maps
  • Weather Map
  • Weather Widgets
  • user-avatar
    Login

    Hourly Weather Albany

    Today, 23 January, Wednesday

    Time Temperature Precipitation Wind Pressure Humidity
    00:00 +20°C° 0.1 mm 5 mps 748 mmHg 90%
    01:00 +20°C° 0.1 mm 5 mps 747 mmHg 91%
    02:00 +21°C° 0 mm 6 mps 746 mmHg 92%
    03:00 +21°C° 0.1 mm 6 mps 746 mmHg 91%
    04:00 +21°C° 0.1 mm 6 mps 746 mmHg 91%
    05:00 +21°C° 0.1 mm 6 mps 746 mmHg 90%
    06:00 +21°C° 0.7 mm 6 mps 746 mmHg 84%
    07:00 +21°C° 0.7 mm 6 mps 746 mmHg 79%
    08:00 +21°C° 0 mm 7 mps 745 mmHg 66%
    09:00 +22°C° 0 mm 7 mps 745 mmHg 56%
    10:00 +23°C° 0 mm 7 mps 744 mmHg 47%
    11:00 +24°C° 0 mm 7 mps 744 mmHg 37%
    12:00 +26°C° 0 mm 8 mps 743 mmHg 36%
    13:00 +27°C° 0 mm 9 mps 743 mmHg 35%
    14:00 +27°C° 0 mm 10 mps 742 mmHg 34%
    15:00 +27°C° 0 mm 10 mps 742 mmHg 38%
    16:00 +26°C° 0 mm 9 mps 742 mmHg 41%
    17:00 +24°C° 0 mm 9 mps 742 mmHg 45%
    18:00 +23°C° 0 mm 9 mps 742 mmHg 50%
    19:00 +22°C° 0 mm 9 mps 743 mmHg 55%
    20:00 +19°C° 0 mm 9 mps 743 mmHg 60%
    21:00 +19°C° 0 mm 9 mps 744 mmHg 65%
    22:00 +19°C° 0 mm 9 mps 744 mmHg 70%
    23:00 +18°C° 0 mm 8 mps 745 mmHg 75%

    Tomorrow, 24 January, Thursday

    Time Temperature Precipitation Wind Pressure Humidity
    00:00 +18°C° 0.2 mm 9 mps 745 mmHg 76%
    01:00 +18°C° 0.2 mm 10 mps 746 mmHg 77%
    02:00 +18°C° 0.2 mm 11 mps 747 mmHg 78%
    03:00 +18°C° 0.1 mm 11 mps 747 mmHg 77%
    04:00 +18°C° 0.1 mm 11 mps 748 mmHg 76%
    05:00 +18°C° 0.1 mm 11 mps 749 mmHg 75%
    06:00 +17°C° 0.1 mm 11 mps 750 mmHg 75%
    07:00 +17°C° 0.1 mm 10 mps 751 mmHg 75%
    08:00 +17°C° 0.1 mm 10 mps 752 mmHg 74%
    09:00 +17°C° 0.1 mm 9 mps 752 mmHg 74%
    10:00 +17°C° 0.1 mm 9 mps 753 mmHg 74%
    11:00 +17°C° 0.1 mm 8 mps 754 mmHg 73%
    12:00 +17°C° 0.1 mm 8 mps 754 mmHg 71%
    13:00 +17°C° 0.1 mm 8 mps 755 mmHg 70%
    14:00 +17°C° 0.1 mm 8 mps 755 mmHg 68%
    15:00 +17°C° 0 mm 7 mps 756 mmHg 66%
    16:00 +17°C° 0 mm 7 mps 756 mmHg 64%
    17:00 +16°C° 0 mm 7 mps 756 mmHg 62%
    18:00 +16°C° 0 mm 6 mps 756 mmHg 65%
    19:00 +15°C° 0 mm 6 mps 757 mmHg 67%
    20:00 +15°C° 0 mm 5 mps 757 mmHg 70%
    21:00 +15°C° 0 mm 4 mps 758 mmHg 69%
    22:00 +15°C° 0 mm 4 mps 758 mmHg 69%
    23:00 +16°C° 0 mm 3 mps 758 mmHg 69%

    Day after tomorrow, 25 January, Friday

    Time Temperature Precipitation Wind Pressure Humidity
    00:00 +14°C° 0 mm 3 mps 758 mmHg 70%
    01:00 +15°C° 0 mm 2 mps 758 mmHg 72%
    02:00 +14°C° 0 mm 2 mps 758 mmHg 73%
    03:00 +14°C° 0 mm 2 mps 758 mmHg 74%
    04:00 +14°C° 0 mm 2 mps 758 mmHg 75%
    05:00 +14°C° 0 mm 2 mps 758 mmHg 75%
    06:00 +15°C° 0 mm 2 mps 758 mmHg 69%
    07:00 +16°C° 0 mm 2 mps 759 mmHg 63%
    08:00 +18°C° 0 mm 2 mps 759 mmHg 57%
    09:00 +19°C° 0 mm 2 mps 759 mmHg 53%
    10:00 +20°C° 0 mm 2 mps 759 mmHg 48%
    11:00 +21°C° 0 mm 2 mps 759 mmHg 43%
    12:00 +22°C° 0 mm 3 mps 758 mmHg 43%
    13:00 +22°C° 0 mm 4 mps 758 mmHg 43%
    14:00 +22°C° 0 mm 4 mps 757 mmHg 43%
    15:00 +21°C° 0 mm 4 mps 757 mmHg 46%
    16:00 +21°C° 0 mm 4 mps 757 mmHg 48%
    17:00 +20°C° 0 mm 4 mps 757 mmHg 51%
    18:00 +19°C° 0 mm 4 mps 758 mmHg 56%
    19:00 +18°C° 0 mm 3 mps 758 mmHg 62%
    20:00 +17°C° 0 mm 3 mps 758 mmHg 67%
    21:00 +17°C° 0 mm 3 mps 759 mmHg 68%
    22:00 +17°C° 0 mm 3 mps 759 mmHg 70%
    23:00 +17°C° 0 mm 4 mps 760 mmHg 71%

    26 January, Saturday

    Time Temperature Precipitation Wind Pressure Humidity
    00:00 +16°C° 0 mm 3 mps 760 mmHg 73%
    01:00 +16°C° 0 mm 3 mps 759 mmHg 76%
    02:00 +14°C° 0 mm 3 mps 759 mmHg 79%
    03:00 +14°C° 0 mm 3 mps 759 mmHg 79%
    04:00 +14°C° 0 mm 4 mps 759 mmHg 79%
    05:00 +14°C° 0 mm 4 mps 759 mmHg 79%
    06:00 +15°C° 0 mm 4 mps 760 mmHg 73%
    07:00 +17°C° 0 mm 4 mps 760 mmHg 68%
    08:00 +18°C° 0 mm 4 mps 761 mmHg 62%
    09:00 +19°C° 0 mm 4 mps 761 mmHg 57%
    10:00 +20°C° 0 mm 4 mps 761 mmHg 53%
    11:00 +21°C° 0 mm 4 mps 761 mmHg 48%
    12:00 +21°C° 0 mm 4 mps 761 mmHg 48%
    13:00 +21°C° 0 mm 4 mps 761 mmHg 48%
    14:00 +22°C° 0 mm 5 mps 761 mmHg 48%
    15:00 +21°C° 0 mm 4 mps 761 mmHg 50%
    16:00 +20°C° 0 mm 4 mps 760 mmHg 53%
    17:00 +20°C° 0 mm 4 mps 760 mmHg 55%
    18:00 +18°C° 0 mm 4 mps 761 mmHg 60%
    19:00 +17°C° 0 mm 3 mps 761 mmHg 64%
    20:00 +16°C° 0 mm 3 mps 761 mmHg 69%
    21:00 +14°C° 0 mm 3 mps 762 mmHg 70%
    22:00 +15°C° 0 mm 2 mps 762 mmHg 72%
    23:00 +14°C° 0 mm 2 mps 762 mmHg 74%

    27 January, Sunday

    Time Temperature Precipitation Wind Pressure Humidity
    00:00 +14°C° 0 mm 1 mps 762 mmHg 76%
    01:00 +14°C° 0 mm 1 mps 761 mmHg 78%
    02:00 +12°C° 0 mm 0 mps 761 mmHg 80%
    03:00 +12°C° 0 mm 0 mps 761 mmHg 81%
    04:00 +13°C° 0 mm 1 mps 761 mmHg 82%
    05:00 +13°C° 0 mm 1 mps 761 mmHg 83%
    06:00 +15°C° 0 mm 1 mps 761 mmHg 74%
    07:00 +18°C° 0 mm 1 mps 761 mmHg 65%
    08:00 +20°C° 0 mm 1 mps 762 mmHg 56%
    09:00 +22°C° 0 mm 1 mps 762 mmHg 49%
    10:00 +24°C° 0 mm 1 mps 761 mmHg 41%
    11:00 +26°C° 0 mm 1 mps 761 mmHg 33%
    12:00 +27°C° 0 mm 2 mps 760 mmHg 34%
    13:00 +27°C° 0 mm 3 mps 760 mmHg 34%
    14:00 +27°C° 0 mm 4 mps 759 mmHg 34%
    15:00 +26°C° 0 mm 4 mps 759 mmHg 39%
    16:00 +25°C° 0 mm 4 mps 759 mmHg 43%
    17:00 +23°C° 0 mm 4 mps 759 mmHg 48%
    18:00 +21°C° 0 mm 3 mps 759 mmHg 55%
    19:00 +19°C° 0 mm 3 mps 759 mmHg 62%
    20:00 +18°C° 0 mm 2 mps 759 mmHg 69%
    21:00 +17°C° 0 mm 2 mps 759 mmHg 73%
    22:00 +16°C° 0 mm 1 mps 760 mmHg 77%
    23:00 +15°C° 0 mm 0 mps 760 mmHg 81%

    28 January, Monday

    Time Temperature Precipitation Wind Pressure Humidity
    00:00 +14°C° 0 mm 0 mps 759 mmHg 83%
    01:00 +14°C° 0 mm 0 mps 759 mmHg 84%
    02:00 +14°C° 0 mm 0 mps 758 mmHg 86%
    03:00 +13°C° 0 mm 0 mps 758 mmHg 87%
    04:00 +13°C° 0 mm 0 mps 758 mmHg 88%
    05:00 +14°C° 0 mm 1 mps 758 mmHg 88%
    06:00 +16°C° 0 mm 1 mps 758 mmHg 78%
    07:00 +19°C° 0 mm 1 mps 758 mmHg 67%
    08:00 +21°C° 0 mm 1 mps 759 mmHg 57%
    09:00 +25°C° 0 mm 1 mps 758 mmHg 47%
    10:00 +28°C° 0 mm 1 mps 758 mmHg 38%
    11:00 +31°C° 0 mm 1 mps 757 mmHg 29%
    12:00 +31°C° 0 mm 2 mps 757 mmHg 31%
    13:00 +30°C° 0 mm 4 mps 756 mmHg 34%
    14:00 +30°C° 0 mm 5 mps 756 mmHg 36%
    15:00 +28°C° 0 mm 5 mps 755 mmHg 41%
    16:00 +26°C° 0 mm 4 mps 755 mmHg 46%
    17:00 +25°C° 0 mm 4 mps 755 mmHg 51%
    18:00 +22°C° 0 mm 3 mps 755 mmHg 58%
    19:00 +20°C° 0 mm 3 mps 756 mmHg 66%
    20:00 +19°C° 0 mm 2 mps 756 mmHg 73%
    21:00 +18°C° 0 mm 2 mps 756 mmHg 77%
    22:00 +17°C° 0 mm 2 mps 756 mmHg 81%
    23:00 +17°C° 0 mm 2 mps 756 mmHg 84%
    Show more